Location: Kawakawa
(35.3830°S, 174.0670°E)
Time: 06:16:45
(UTC+12:00)

Cosmos 1184 Rocket - Pass Details

Date: 24 January 2019
Orbit: 412 x 429 km, 81.2° (Epoch: 22 April)

Event Time Altitude Azimuth Distance (km) Brightness Sun altitude
Rises 21:25:13 0° 336° (NNW) 2,393 6.5 -9.4°
Reaches altitude 10° 21:27:21 10° 327° (NNW) 1,538 5.6 -9.8°
Maximum altitude 21:30:28 36° 259° (WSW) 719 4.6 -10.3°
Drops below altitude 10° 21:33:39 10° 190° (S) 1,567 6.3 -10.8°
Sets 21:35:51 0° 181° (S) 2,446 7.1 -11.2°
